Time,TemperatureF,DewpointF,PressureIn,WindDirection,WindDirectionDegrees,WindSpeedMPH,WindSpeedGustMPH,Humidity,HourlyPrecipIn,Conditions,Clouds,dailyrainin,SoftwareType,DateUTC
2013-01-03 00:03:00,1.0,-5.0,30.34,WSW,242,0.0,1.0,74,0.00,,,0.00,,2013-01-03 05:03:00,
2013-01-03 00:12:00,1.0,-5.0,30.34,WSW,242,0.0,1.0,74,0.00,,,0.00,,2013-01-03 05:12:00,
2013-01-03 00:23:00,1.0,-5.0,30.34,WSW,242,0.0,1.0,74,0.00,,,0.00,,2013-01-03 05:23:00,
2013-01-03 00:33:00,0.0,-6.0,30.36,SE,145,0.0,2.0,75,0.00,,,0.00,,2013-01-03 05:33:00,
2013-01-03 00:42:00,0.0,-6.0,30.36,SE,145,0.0,2.0,75,0.00,,,0.00,,2013-01-03 05:42:00,
2013-01-03 00:53:00,0.0,-6.0,30.35,South,169,0.0,1.0,75,0.00,,,0.00,,2013-01-03 05:53:00,
2013-01-03 01:03:00,0.0,-6.0,30.36,South,170,0.0,0.0,75,0.00,,,0.00,,2013-01-03 06:03:00,
2013-01-03 01:12:00,0.0,-6.0,30.36,South,170,0.0,0.0,75,0.00,,,0.00,,2013-01-03 06:12:00,
2013-01-03 01:22:00,0.0,-6.0,30.36,South,170,0.0,0.0,75,0.00,,,0.00,,2013-01-03 06:22:00,
2013-01-03 01:33:00,0.0,-6.0,30.36,South,170,0.0,1.0,76,0.00,,,0.00,,2013-01-03 06:33:00,
2013-01-03 01:42:00,0.0,-6.0,30.36,South,170,0.0,1.0,76,0.00,,,0.00,,2013-01-03 06:42:00,
2013-01-03 01:52:00,0.0,-5.0,30.36,WSW,246,0.0,2.0,77,0.00,,,0.00,,2013-01-03 06:52:00,
2013-01-03 02:02:00,0.0,-6.0,30.37,SSW,197,0.0,3.0,76,0.00,,,0.00,,2013-01-03 07:02:00,
2013-01-03 02:12:00,0.0,-6.0,30.37,SSW,197,0.0,3.0,76,0.00,,,0.00,,2013-01-03 07:12:00,
2013-01-03 02:22:00,0.0,-6.0,30.37,SSW,197,0.0,0.0,76,0.00,,,0.00,,2013-01-03 07:22:00,
2013-01-03 02:33:00,-1.0,-7.0,30.36,SSW,194,0.0,1.0,76,0.00,,,0.00,,2013-01-03 07:33:00,
2013-01-03 02:42:00,-1.0,-7.0,30.36,SSW,194,0.0,1.0,76,0.00,,,0.00,,2013-01-03 07:42:00,
2013-01-03 02:52:00,-1.0,-6.0,30.36,SSW,194,0.0,0.0,78,0.00,,,0.00,,2013-01-03 07:52:00,
2013-01-03 03:02:00,-2.0,-7.0,30.37,SSW,194,0.0,0.0,79,0.00,,,0.00,,2013-01-03 08:02:00,
2013-01-03 03:12:00,-2.0,-7.0,30.37,SSW,194,0.0,0.0,79,0.00,,,0.00,,2013-01-03 08:12:00,
2013-01-03 03:22:00,-2.0,-7.0,30.36,SSW,194,0.0,0.0,80,0.00,,,0.00,,2013-01-03 08:22:00,
2013-01-03 03:33:00,-3.0,-8.0,30.36,SSW,194,0.0,0.0,80,0.00,,,0.00,,2013-01-03 08:33:00,
2013-01-03 03:43:00,-3.0,-8.0,30.36,SSW,194,0.0,0.0,80,0.00,,,0.00,,2013-01-03 08:43:00,
2013-01-03 03:53:00,-3.0,-7.0,30.36,SSW,193,0.0,0.0,81,0.00,,,0.00,,2013-01-03 08:53:00,
2013-01-03 04:03:00,-3.0,-7.0,30.36,SSW,193,0.0,0.0,81,0.00,,,0.00,,2013-01-03 09:03:00,
2013-01-03 04:12:00,-3.0,-7.0,30.36,SSW,193,0.0,0.0,81,0.00,,,0.00,,2013-01-03 09:12:00,
2013-01-03 04:22:00,-3.0,-7.0,30.35,SSW,194,0.0,1.0,81,0.00,,,0.00,,2013-01-03 09:22:00,
2013-01-03 04:34:00,-4.0,-8.0,30.35,SSW,194,0.0,0.0,81,0.00,,,0.00,,2013-01-03 09:34:00,
2013-01-03 04:43:00,-4.0,-8.0,30.35,SSW,194,0.0,0.0,81,0.00,,,0.00,,2013-01-03 09:43:00,
2013-01-03 04:52:00,-4.0,-8.0,30.34,SSW,194,0.0,0.0,82,0.00,,,0.00,,2013-01-03 09:52:00,
2013-01-03 05:02:00,-5.0,-9.0,30.35,SSW,194,0.0,1.0,82,0.00,,,0.00,,2013-01-03 10:02:00,
2013-01-03 05:12:00,-5.0,-9.0,30.35,SSW,194,0.0,1.0,82,0.00,,,0.00,,2013-01-03 10:12:00,
2013-01-03 05:23:00,-5.0,-9.0,30.35,SSW,194,0.0,0.0,83,0.00,,,0.00,,2013-01-03 10:23:00,
2013-01-03 05:33:00,-6.0,-10.0,30.35,SSW,194,0.0,0.0,83,0.00,,,0.00,,2013-01-03 10:33:00,
2013-01-03 05:43:00,-6.0,-10.0,30.35,SSW,194,0.0,0.0,83,0.00,,,0.00,,2013-01-03 10:43:00,
2013-01-03 05:52:00,-6.0,-10.0,30.35,SSW,194,0.0,0.0,83,0.00,,,0.00,,2013-01-03 10:52:00,
2013-01-03 06:03:00,-6.0,-10.0,30.35,SSW,194,0.0,0.0,83,0.00,,,0.00,,2013-01-03 11:03:00,
2013-01-03 06:12:00,-6.0,-10.0,30.35,SSW,194,0.0,0.0,83,0.00,,,0.00,,2013-01-03 11:12:00,
2013-01-03 06:23:00,-7.0,-11.0,30.35,SSW,194,0.0,0.0,83,0.00,,,0.00,,2013-01-03 11:23:00,
2013-01-03 06:33:00,-7.0,-11.0,30.35,SSW,194,0.0,1.0,84,0.00,,,0.00,,2013-01-03 11:33:00,
2013-01-03 06:43:00,-7.0,-11.0,30.35,SSW,194,0.0,1.0,84,0.00,,,0.00,,2013-01-03 11:43:00,
2013-01-03 06:53:00,-7.0,-11.0,30.35,SSW,194,0.0,0.0,84,0.00,,,0.00,,2013-01-03 11:53:00,
2013-01-03 07:03:00,-8.0,-12.0,30.35,SSW,194,0.0,1.0,83,0.00,,,0.00,,2013-01-03 12:03:00,
2013-01-03 07:12:00,-8.0,-12.0,30.35,SSW,194,0.0,1.0,83,0.00,,,0.00,,2013-01-03 12:12:00,
2013-01-03 07:22:00,-7.0,-11.0,30.35,SSW,194,0.0,0.0,84,0.00,,,0.00,,2013-01-03 12:22:00,
2013-01-03 07:33:00,-8.0,-12.0,30.36,SSW,194,0.0,0.0,83,0.00,,,0.00,,2013-01-03 12:33:00,
2013-01-03 07:42:00,-8.0,-12.0,30.36,SSW,194,0.0,0.0,83,0.00,,,0.00,,2013-01-03 12:42:00,
2013-01-03 07:53:00,-8.0,-12.0,30.36,SSW,194,0.0,0.0,83,0.00,,,0.00,,2013-01-03 12:53:00,
2013-01-03 08:03:00,-8.0,-12.0,30.36,SSW,194,0.0,0.0,83,0.00,,,0.00,,2013-01-03 13:03:00,
2013-01-03 08:13:00,-8.0,-12.0,30.36,SSW,194,0.0,0.0,83,0.00,,,0.00,,2013-01-03 13:13:00,
2013-01-03 08:22:00,-8.0,-12.0,30.35,SSW,194,0.0,0.0,84,0.00,,,0.00,,2013-01-03 13:22:00,
2013-01-03 08:33:00,-7.0,-11.0,30.35,SSW,193,0.0,1.0,84,0.00,,,0.00,,2013-01-03 13:33:00,
2013-01-03 08:42:00,-7.0,-11.0,30.35,SSW,193,0.0,1.0,84,0.00,,,0.00,,2013-01-03 13:42:00,
2013-01-03 08:52:00,-6.0,-10.0,30.35,SSW,194,0.0,1.0,84,0.00,,,0.00,,2013-01-03 13:52:00,
2013-01-03 09:03:00,-5.0,-9.0,30.34,SSW,194,0.0,0.0,84,0.00,,,0.00,,2013-01-03 14:03:00,
2013-01-03 09:12:00,-5.0,-9.0,30.34,SSW,194,0.0,0.0,84,0.00,,,0.00,,2013-01-03 14:12:00,
2013-01-03 09:23:00,-3.0,-7.0,30.34,SSE,156,0.0,1.0,83,0.00,,,0.00,,2013-01-03 14:23:00,
2013-01-03 09:33:00,-3.0,-7.0,30.34,SSE,156,0.0,1.0,83,0.00,,,0.00,,2013-01-03 14:33:00,
2013-01-03 09:43:00,-3.0,-7.0,30.34,SSE,156,0.0,1.0,83,0.00,,,0.00,,2013-01-03 14:43:00,
2013-01-03 09:53:00,0.0,-6.0,30.34,WNW,287,1.0,2.0,76,0.00,,,0.00,,2013-01-03 14:53:00,
2013-01-03 10:03:00,2.0,-5.0,30.34,SSW,210,0.0,1.0,71,0.00,,,0.00,,2013-01-03 15:03:00,
2013-01-03 10:12:00,2.0,-5.0,30.34,SSW,210,0.0,1.0,71,0.00,,,0.00,,2013-01-03 15:12:00,
2013-01-03 10:23:00,3.0,-6.0,30.33,WSW,257,1.0,3.0,66,0.00,,,0.00,,2013-01-03 15:23:00,
2013-01-03 10:34:00,5.0,-4.0,30.34,SW,229,0.0,2.0,65,0.00,,,0.00,,2013-01-03 15:34:00,
2013-01-03 10:43:00,5.0,-4.0,30.34,SW,229,0.0,2.0,65,0.00,,,0.00,,2013-01-03 15:43:00,
2013-01-03 10:53:00,7.0,-3.0,30.34,West,259,0.0,2.0,62,0.00,,,0.00,,2013-01-03 15:53:00,
2013-01-03 11:03:00,6.0,-6.0,30.34,West,273,0.0,4.0,58,0.00,,,0.00,,2013-01-03 16:03:00,
2013-01-03 11:12:00,6.0,-6.0,30.34,West,273,0.0,4.0,58,0.00,,,0.00,,2013-01-03 16:12:00,
2013-01-03 11:23:00,7.0,-5.0,30.34,West,271,1.0,5.0,57,0.00,,,0.00,,2013-01-03 16:23:00,
2013-01-03 11:33:00,8.0,-4.0,30.33,ENE,77,0.0,5.0,57,0.00,,,0.00,,2013-01-03 16:33:00,
2013-01-03 11:43:00,8.0,-4.0,30.33,ENE,77,0.0,5.0,57,0.00,,,0.00,,2013-01-03 16:43:00,
2013-01-03 11:53:00,9.0,-4.0,30.32,WSW,253,0.0,4.0,54,0.00,,,0.00,,2013-01-03 16:53:00,
2013-01-03 12:03:00,10.0,-3.0,30.31,SSE,149,0.0,1.0,55,0.00,,,0.00,,2013-01-03 17:03:00,
2013-01-03 12:13:00,10.0,-3.0,30.31,SSE,149,0.0,1.0,55,0.00,,,0.00,,2013-01-03 17:13:00,
2013-01-03 12:23:00,11.0,-3.0,30.30,West,269,1.0,3.0,52,0.00,,,0.00,,2013-01-03 17:23:00,
2013-01-03 12:33:00,11.0,-3.0,30.29,West,276,0.0,3.0,53,0.00,,,0.00,,2013-01-03 17:33:00,
2013-01-03 12:43:00,11.0,-3.0,30.29,West,276,0.0,3.0,53,0.00,,,0.00,,2013-01-03 17:43:00,
2013-01-03 12:53:00,12.0,-3.0,30.28,ESE,103,1.0,2.0,50,0.00,,,0.00,,2013-01-03 17:53:00,
2013-01-03 13:03:00,13.0,-3.0,30.28,West,260,0.0,4.0,49,0.00,,,0.00,,2013-01-03 18:03:00,
2013-01-03 13:13:00,13.0,-3.0,30.28,West,260,0.0,4.0,49,0.00,,,0.00,,2013-01-03 18:13:00,
2013-01-03 13:22:00,14.0,-3.0,30.27,WSW,249,2.0,4.0,46,0.00,,,0.00,,2013-01-03 18:22:00,
2013-01-03 13:33:00,15.0,-2.0,30.26,WSW,258,0.0,5.0,45,0.00,,,0.00,,2013-01-03 18:33:00,
2013-01-03 13:43:00,15.0,-2.0,30.26,WSW,258,0.0,5.0,45,0.00,,,0.00,,2013-01-03 18:43:00,
2013-01-03 13:53:00,16.0,-2.0,30.26,SW,235,1.0,3.0,44,0.00,,,0.00,,2013-01-03 18:53:00,
2013-01-03 14:03:00,16.0,-2.0,30.25,West,264,2.0,4.0,45,0.00,,,0.00,,2013-01-03 19:03:00,
2013-01-03 14:13:00,16.0,-2.0,30.25,West,264,2.0,4.0,45,0.00,,,0.00,,2013-01-03 19:13:00,
2013-01-03 14:56:00,17.0,-1.0,30.24,WSW,257,0.0,3.0,44,0.00,,,0.00,,2013-01-03 19:56:00,
2013-01-03 15:03:00,17.0,-1.0,30.23,West,274,2.0,4.0,44,0.00,,,0.00,,2013-01-03 20:03:00,
2013-01-03 15:13:00,17.0,-1.0,30.23,West,274,2.0,4.0,44,0.00,,,0.00,,2013-01-03 20:13:00,
2013-01-03 15:23:00,17.0,-1.0,30.23,West,266,1.0,4.0,44,0.00,,,0.00,,2013-01-03 20:23:00,
2013-01-03 15:33:00,17.0,-1.0,30.22,WSW,240,1.0,2.0,45,0.00,,,0.00,,2013-01-03 20:33:00,
2013-01-03 15:43:00,17.0,-1.0,30.22,WSW,240,1.0,2.0,45,0.00,,,0.00,,2013-01-03 20:43:00,
2013-01-03 15:53:00,17.0,-1.0,30.23,WSW,247,1.0,2.0,45,0.00,,,0.00,,2013-01-03 20:53:00,
2013-01-03 16:03:00,17.0,1.0,30.22,WSW,243,0.0,2.0,48,0.00,,,0.00,,2013-01-03 21:03:00,
2013-01-03 16:13:00,17.0,1.0,30.22,WSW,243,0.0,2.0,48,0.00,,,0.00,,2013-01-03 21:13:00,
2013-01-03 16:23:00,16.0,3.0,30.22,WSW,243,0.0,0.0,55,0.00,,,0.00,,2013-01-03 21:23:00,
2013-01-03 16:37:00,15.0,2.0,30.22,WSW,243,0.0,0.0,56,0.00,,,0.00,,2013-01-03 21:37:00,
2013-01-03 16:50:00,15.0,2.0,30.22,WSW,243,0.0,0.0,56,0.00,,,0.00,,2013-01-03 21:50:00,
2013-01-03 17:03:00,14.0,3.0,30.22,WSW,243,0.0,1.0,60,0.00,,,0.00,,2013-01-03 22:03:00,
2013-01-03 17:12:00,14.0,3.0,30.22,WSW,243,0.0,1.0,60,0.00,,,0.00,,2013-01-03 22:12:00,
2013-01-03 17:22:00,11.0,3.0,30.23,WSW,243,0.0,0.0,68,0.00,,,0.00,,2013-01-03 22:22:00,
2013-01-03 17:33:00,10.0,3.0,30.23,WSW,243,0.0,0.0,72,0.00,,,0.00,,2013-01-03 22:33:00,
2013-01-03 17:43:00,10.0,3.0,30.23,WSW,243,0.0,0.0,72,0.00,,,0.00,,2013-01-03 22:43:00,
2013-01-03 17:52:00,9.0,2.0,30.24,WSW,243,0.0,0.0,74,0.00,,,0.00,,2013-01-03 22:52:00,
2013-01-03 18:03:00,9.0,3.0,30.24,WSW,243,0.0,0.0,76,0.00,,,0.00,,2013-01-03 23:03:00,
2013-01-03 18:12:00,9.0,3.0,30.24,WSW,243,0.0,0.0,76,0.00,,,0.00,,2013-01-03 23:12:00,
2013-01-03 18:23:00,8.0,2.0,30.24,WSW,242,0.0,1.0,77,0.00,,,0.00,,2013-01-03 23:23:00,
2013-01-03 18:33:00,8.0,3.0,30.24,WSW,241,0.0,0.0,78,0.00,,,0.00,,2013-01-03 23:33:00,
2013-01-03 18:43:00,8.0,3.0,30.24,WSW,241,0.0,0.0,78,0.00,,,0.00,,2013-01-03 23:43:00,
2013-01-03 18:53:00,8.0,3.0,30.24,WSW,242,0.0,0.0,79,0.00,,,0.00,,2013-01-03 23:53:00,
2013-01-03 19:03:00,8.0,3.0,30.24,WSW,242,0.0,0.0,78,0.00,,,0.00,,2013-01-04 00:03:00,
2013-01-03 19:13:00,8.0,3.0,30.24,WSW,242,0.0,0.0,78,0.00,,,0.00,,2013-01-04 00:13:00,
2013-01-03 19:23:00,8.0,3.0,30.24,WSW,242,0.0,0.0,79,0.00,,,0.00,,2013-01-04 00:23:00,
2013-01-03 19:33:00,8.0,3.0,30.24,WSW,244,0.0,0.0,79,0.00,,,0.00,,2013-01-04 00:33:00,
2013-01-03 19:42:00,8.0,3.0,30.24,WSW,244,0.0,0.0,79,0.00,,,0.00,,2013-01-04 00:42:00,
2013-01-03 19:52:00,8.0,3.0,30.24,WSW,245,0.0,0.0,79,0.00,,,0.00,,2013-01-04 00:52:00,
2013-01-03 20:02:00,8.0,3.0,30.24,WSW,245,0.0,0.0,80,0.00,,,0.00,,2013-01-04 01:02:00,
2013-01-03 20:12:00,8.0,3.0,30.24,WSW,245,0.0,0.0,80,0.00,,,0.00,,2013-01-04 01:12:00,
2013-01-03 20:22:00,8.0,3.0,30.24,WSW,245,0.0,0.0,80,0.00,,,0.00,,2013-01-04 01:22:00,
2013-01-03 20:33:00,7.0,3.0,30.24,WSW,245,0.0,0.0,82,0.00,,,0.00,,2013-01-04 01:33:00,
2013-01-03 20:42:00,7.0,3.0,30.24,WSW,245,0.0,0.0,82,0.00,,,0.00,,2013-01-04 01:42:00,
2013-01-03 20:53:00,7.0,3.0,30.24,WSW,243,0.0,0.0,83,0.00,,,0.00,,2013-01-04 01:53:00,
2013-01-03 21:02:00,7.0,3.0,30.23,WSW,244,0.0,0.0,82,0.00,,,0.00,,2013-01-04 02:02:00,
2013-01-03 21:12:00,7.0,3.0,30.23,WSW,244,0.0,0.0,82,0.00,,,0.00,,2013-01-04 02:12:00,
2013-01-03 21:22:00,8.0,4.0,30.23,WSW,243,0.0,0.0,82,0.00,,,0.00,,2013-01-04 02:22:00,
2013-01-03 21:33:00,8.0,4.0,30.23,WSW,243,0.0,0.0,82,0.00,,,0.00,,2013-01-04 02:33:00,
2013-01-03 21:42:00,8.0,4.0,30.23,WSW,243,0.0,0.0,82,0.00,,,0.00,,2013-01-04 02:42:00,
2013-01-03 21:52:00,8.0,4.0,30.23,WSW,243,0.0,0.0,82,0.00,,,0.00,,2013-01-04 02:52:00,
2013-01-03 22:03:00,8.0,3.0,30.23,WSW,243,0.0,0.0,81,0.00,,,0.00,,2013-01-04 03:03:00,
2013-01-03 22:12:00,8.0,3.0,30.23,WSW,243,0.0,0.0,81,0.00,,,0.00,,2013-01-04 03:12:00,
2013-01-03 22:22:00,8.0,4.0,30.22,WSW,243,0.0,0.0,82,0.00,,,0.00,,2013-01-04 03:22:00,
2013-01-03 22:33:00,8.0,4.0,30.22,NNE,21,0.0,1.0,82,0.00,,,0.00,,2013-01-04 03:33:00,
2013-01-03 22:43:00,8.0,4.0,30.22,NNE,21,0.0,1.0,82,0.00,,,0.00,,2013-01-04 03:43:00,
2013-01-03 22:52:00,8.0,4.0,30.22,NNE,22,0.0,0.0,83,0.00,,,0.00,,2013-01-04 03:52:00,
2013-01-03 23:02:00,8.0,4.0,30.22,NNE,21,0.0,1.0,83,0.00,,,0.00,,2013-01-04 04:02:00,
2013-01-03 23:12:00,8.0,4.0,30.22,NNE,21,0.0,1.0,83,0.00,,,0.00,,2013-01-04 04:12:00,
2013-01-03 23:22:00,7.0,3.0,30.21,NNE,21,0.0,0.0,84,0.00,,,0.00,,2013-01-04 04:22:00,
2013-01-03 23:32:00,7.0,3.0,30.21,NNE,22,0.0,1.0,85,0.00,,,0.00,,2013-01-04 04:32:00,
2013-01-03 23:42:00,7.0,3.0,30.21,NNE,22,0.0,1.0,85,0.00,,,0.00,,2013-01-04 04:42:00,
2013-01-03 23:52:00,7.0,3.0,30.20,NNE,21,0.0,1.0,85,0.00,,,0.00,,2013-01-04 04:52:00,